Index of /20260428/WXO-DD/model_gdps/15km/12/084
Name Last modified Size Description
Parent Directory -
20260428T12Z_MSC_GDPS_AbsoluteVorticity_IsbL-0200_LatLon0.15_PT084H.grib2 2026-04-28 16:15 1.4M
20260428T12Z_MSC_GDPS_AbsoluteVorticity_IsbL-0250_LatLon0.15_PT084H.grib2 2026-04-28 16:15 1.3M
20260428T12Z_MSC_GDPS_AbsoluteVorticity_IsbL-0500_LatLon0.15_PT084H.grib2 2026-04-28 16:15 1.2M
20260428T12Z_MSC_GDPS_AbsoluteVorticity_IsbL-0700_LatLon0.15_PT084H.grib2 2026-04-28 16:15 1.4M
20260428T12Z_MSC_GDPS_AbsoluteVorticity_IsbL-0850_LatLon0.15_PT084H.grib2 2026-04-28 16:15 1.6M
20260428T12Z_MSC_GDPS_AirTemp-Max_AGL-2m_LatLon0.15_PT084H.grib2 2026-04-28 16:15 749K
20260428T12Z_MSC_GDPS_AirTemp-Min_AGL-2m_LatLon0.15_PT084H.grib2 2026-04-28 16:15 796K
20260428T12Z_MSC_GDPS_AirTemp_AGL-120m_LatLon0.15_PT084H.grib2 2026-04-28 16:15 910K
20260428T12Z_MSC_GDPS_AirTemp_AGL-2m_LatLon0.15_PT084H.grib2 2026-04-28 16:15 1.0M
20260428T12Z_MSC_GDPS_AirTemp_AGL-40m_LatLon0.15_PT084H.grib2 2026-04-28 16:15 815K
20260428T12Z_MSC_GDPS_AirTemp_AGL-80m_LatLon0.15_PT084H.grib2 2026-04-28 16:15 803K
20260428T12Z_MSC_GDPS_AirTemp_IsbL-0001_LatLon0.15_PT084H.grib2 2026-04-28 16:15 735K
20260428T12Z_MSC_GDPS_AirTemp_IsbL-0005_LatLon0.15_PT084H.grib2 2026-04-28 16:15 714K
20260428T12Z_MSC_GDPS_AirTemp_IsbL-0010_LatLon0.15_PT084H.grib2 2026-04-28 16:15 722K
20260428T12Z_MSC_GDPS_AirTemp_IsbL-0020_LatLon0.15_PT084H.grib2 2026-04-28 16:15 821K
20260428T12Z_MSC_GDPS_AirTemp_IsbL-0030_LatLon0.15_PT084H.grib2 2026-04-28 16:15 861K
20260428T12Z_MSC_GDPS_AirTemp_IsbL-0050_LatLon0.15_PT084H.grib2 2026-04-28 16:15 912K
20260428T12Z_MSC_GDPS_AirTemp_IsbL-0100_LatLon0.15_PT084H.grib2 2026-04-28 16:15 1.0M
20260428T12Z_MSC_GDPS_AirTemp_IsbL-0150_LatLon0.15_PT084H.grib2 2026-04-28 16:15 924K
20260428T12Z_MSC_GDPS_AirTemp_IsbL-0175_LatLon0.15_PT084H.grib2 2026-04-28 16:15 924K
20260428T12Z_MSC_GDPS_AirTemp_IsbL-0200_LatLon0.15_PT084H.grib2 2026-04-28 16:15 939K
20260428T12Z_MSC_GDPS_AirTemp_IsbL-0225_LatLon0.15_PT084H.grib2 2026-04-28 16:15 951K
20260428T12Z_MSC_GDPS_AirTemp_IsbL-0250_LatLon0.15_PT084H.grib2 2026-04-28 16:15 1.0M
20260428T12Z_MSC_GDPS_AirTemp_IsbL-0275_LatLon0.15_PT084H.grib2 2026-04-28 16:15 1.0M
20260428T12Z_MSC_GDPS_AirTemp_IsbL-0300_LatLon0.15_PT084H.grib2 2026-04-28 16:15 1.0M
20260428T12Z_MSC_GDPS_AirTemp_IsbL-0350_LatLon0.15_PT084H.grib2 2026-04-28 16:15 1.0M
20260428T12Z_MSC_GDPS_AirTemp_IsbL-0400_LatLon0.15_PT084H.grib2 2026-04-28 16:15 1.0M
20260428T12Z_MSC_GDPS_AirTemp_IsbL-0450_LatLon0.15_PT084H.grib2 2026-04-28 16:15 754K
20260428T12Z_MSC_GDPS_AirTemp_IsbL-0500_LatLon0.15_PT084H.grib2 2026-04-28 16:15 776K
20260428T12Z_MSC_GDPS_AirTemp_IsbL-0550_LatLon0.15_PT084H.grib2 2026-04-28 16:15 812K
20260428T12Z_MSC_GDPS_AirTemp_IsbL-0600_LatLon0.15_PT084H.grib2 2026-04-28 16:15 905K
20260428T12Z_MSC_GDPS_AirTemp_IsbL-0650_LatLon0.15_PT084H.grib2 2026-04-28 16:15 931K
20260428T12Z_MSC_GDPS_AirTemp_IsbL-0700_LatLon0.15_PT084H.grib2 2026-04-28 16:15 958K
20260428T12Z_MSC_GDPS_AirTemp_IsbL-0750_LatLon0.15_PT084H.grib2 2026-04-28 16:15 1.0M
20260428T12Z_MSC_GDPS_AirTemp_IsbL-0800_LatLon0.15_PT084H.grib2 2026-04-28 16:15 1.0M
20260428T12Z_MSC_GDPS_AirTemp_IsbL-0850_LatLon0.15_PT084H.grib2 2026-04-28 16:15 1.1M
20260428T12Z_MSC_GDPS_AirTemp_IsbL-0875_LatLon0.15_PT084H.grib2 2026-04-28 16:15 1.2M
20260428T12Z_MSC_GDPS_AirTemp_IsbL-0900_LatLon0.15_PT084H.grib2 2026-04-28 16:15 1.2M
20260428T12Z_MSC_GDPS_AirTemp_IsbL-0925_LatLon0.15_PT084H.grib2 2026-04-28 16:15 1.1M
20260428T12Z_MSC_GDPS_AirTemp_IsbL-0950_LatLon0.15_PT084H.grib2 2026-04-28 16:15 1.2M
20260428T12Z_MSC_GDPS_AirTemp_IsbL-0970_LatLon0.15_PT084H.grib2 2026-04-28 16:15 1.2M
20260428T12Z_MSC_GDPS_AirTemp_IsbL-0985_LatLon0.15_PT084H.grib2 2026-04-28 16:15 1.1M
20260428T12Z_MSC_GDPS_AirTemp_IsbL-1000_LatLon0.15_PT084H.grib2 2026-04-28 16:15 1.1M
20260428T12Z_MSC_GDPS_AirTemp_IsbL-1015_LatLon0.15_PT084H.grib2 2026-04-28 16:15 1.1M
20260428T12Z_MSC_GDPS_Albedo_Sfc_LatLon0.15_PT084H.grib2 2026-04-28 16:15 241K
20260428T12Z_MSC_GDPS_CAPE_Sfc_LatLon0.15_PT084H.grib2 2026-04-28 16:15 3.9M
20260428T12Z_MSC_GDPS_CIN_Sfc_LatLon0.15_PT084H.grib2 2026-04-28 16:15 2.9M
20260428T12Z_MSC_GDPS_CloudWater_EAtm_LatLon0.15_PT084H.grib2 2026-04-28 16:15 534K
20260428T12Z_MSC_GDPS_ConvectivePrecip-Accum_Sfc_LatLon0.15_PT084H.grib2 2026-04-28 16:15 4.2M
20260428T12Z_MSC_GDPS_DewPointDepression_AGL-2m_LatLon0.15_PT084H.grib2 2026-04-28 16:15 750K
20260428T12Z_MSC_GDPS_DewPointDepression_IsbL-0010_LatLon0.15_PT084H.grib2 2026-04-28 16:15 69K
20260428T12Z_MSC_GDPS_DewPointDepression_IsbL-0020_LatLon0.15_PT084H.grib2 2026-04-28 16:15 61K
20260428T12Z_MSC_GDPS_DewPointDepression_IsbL-0030_LatLon0.15_PT084H.grib2 2026-04-28 16:15 67K
20260428T12Z_MSC_GDPS_DewPointDepression_IsbL-0050_LatLon0.15_PT084H.grib2 2026-04-28 16:15 304K
20260428T12Z_MSC_GDPS_DewPointDepression_IsbL-0100_LatLon0.15_PT084H.grib2 2026-04-28 16:15 423K
20260428T12Z_MSC_GDPS_DewPointDepression_IsbL-0150_LatLon0.15_PT084H.grib2 2026-04-28 16:15 582K
20260428T12Z_MSC_GDPS_DewPointDepression_IsbL-0175_LatLon0.15_PT084H.grib2 2026-04-28 16:15 641K
20260428T12Z_MSC_GDPS_DewPointDepression_IsbL-0200_LatLon0.15_PT084H.grib2 2026-04-28 16:15 767K
20260428T12Z_MSC_GDPS_DewPointDepression_IsbL-0225_LatLon0.15_PT084H.grib2 2026-04-28 16:15 824K
20260428T12Z_MSC_GDPS_DewPointDepression_IsbL-0250_LatLon0.15_PT084H.grib2 2026-04-28 16:15 842K
20260428T12Z_MSC_GDPS_DewPointDepression_IsbL-0275_LatLon0.15_PT084H.grib2 2026-04-28 16:15 795K
20260428T12Z_MSC_GDPS_DewPointDepression_IsbL-0300_LatLon0.15_PT084H.grib2 2026-04-28 16:15 779K
20260428T12Z_MSC_GDPS_DewPointDepression_IsbL-0350_LatLon0.15_PT084H.grib2 2026-04-28 16:15 778K
20260428T12Z_MSC_GDPS_DewPointDepression_IsbL-0400_LatLon0.15_PT084H.grib2 2026-04-28 16:15 867K
20260428T12Z_MSC_GDPS_DewPointDepression_IsbL-0450_LatLon0.15_PT084H.grib2 2026-04-28 16:15 952K
20260428T12Z_MSC_GDPS_DewPointDepression_IsbL-0500_LatLon0.15_PT084H.grib2 2026-04-28 16:15 1.0M
20260428T12Z_MSC_GDPS_DewPointDepression_IsbL-0550_LatLon0.15_PT084H.grib2 2026-04-28 16:15 1.0M
20260428T12Z_MSC_GDPS_DewPointDepression_IsbL-0600_LatLon0.15_PT084H.grib2 2026-04-28 16:15 1.1M
20260428T12Z_MSC_GDPS_DewPointDepression_IsbL-0650_LatLon0.15_PT084H.grib2 2026-04-28 16:15 1.1M
20260428T12Z_MSC_GDPS_DewPointDepression_IsbL-0700_LatLon0.15_PT084H.grib2 2026-04-28 16:15 1.1M
20260428T12Z_MSC_GDPS_DewPointDepression_IsbL-0750_LatLon0.15_PT084H.grib2 2026-04-28 16:15 1.1M
20260428T12Z_MSC_GDPS_DewPointDepression_IsbL-0800_LatLon0.15_PT084H.grib2 2026-04-28 16:15 1.1M
20260428T12Z_MSC_GDPS_DewPointDepression_IsbL-0850_LatLon0.15_PT084H.grib2 2026-04-28 16:15 1.2M
20260428T12Z_MSC_GDPS_DewPointDepression_IsbL-0875_LatLon0.15_PT084H.grib2 2026-04-28 16:15 1.1M
20260428T12Z_MSC_GDPS_DewPointDepression_IsbL-0900_LatLon0.15_PT084H.grib2 2026-04-28 16:15 1.1M
20260428T12Z_MSC_GDPS_DewPointDepression_IsbL-0925_LatLon0.15_PT084H.grib2 2026-04-28 16:15 1.0M
20260428T12Z_MSC_GDPS_DewPointDepression_IsbL-0950_LatLon0.15_PT084H.grib2 2026-04-28 16:15 1.0M
20260428T12Z_MSC_GDPS_DewPointDepression_IsbL-0970_LatLon0.15_PT084H.grib2 2026-04-28 16:15 1.0M
20260428T12Z_MSC_GDPS_DewPointDepression_IsbL-0985_LatLon0.15_PT084H.grib2 2026-04-28 16:15 1.0M
20260428T12Z_MSC_GDPS_DewPointDepression_IsbL-1000_LatLon0.15_PT084H.grib2 2026-04-28 16:15 964K
20260428T12Z_MSC_GDPS_DewPointDepression_IsbL-1015_LatLon0.15_PT084H.grib2 2026-04-28 16:15 904K
20260428T12Z_MSC_GDPS_DewPoint_AGL-2m_LatLon0.15_PT084H.grib2 2026-04-28 16:15 604K
20260428T12Z_MSC_GDPS_DownwardLongwaveRadiationFlux-Accum_Sfc_LatLon0.15_PT084H.grib2 2026-04-28 16:15 689K
20260428T12Z_MSC_GDPS_DownwardShortwaveRadiationFlux-Accum_NTAtm_LatLon0.15_PT084H.grib2 2026-04-28 16:15 277K
20260428T12Z_MSC_GDPS_DownwardShortwaveRadiationFlux-Accum_Sfc_LatLon0.15_PT084H.grib2 2026-04-28 16:15 920K
20260428T12Z_MSC_GDPS_FreezingRain-Accum12h_Sfc_LatLon0.15_PT084H.grib2 2026-04-28 16:15 121K
20260428T12Z_MSC_GDPS_FreezingRain-Accum1h_Sfc_LatLon0.15_PT084H.grib2 2026-04-28 16:15 33K
20260428T12Z_MSC_GDPS_FreezingRain-Accum24h_Sfc_LatLon0.15_PT084H.grib2 2026-04-28 16:15 167K
20260428T12Z_MSC_GDPS_FreezingRain-Accum3h_Sfc_LatLon0.15_PT084H.grib2 2026-04-28 16:15 43K
20260428T12Z_MSC_GDPS_FreezingRain-Accum6h_Sfc_LatLon0.15_PT084H.grib2 2026-04-28 16:15 77K
20260428T12Z_MSC_GDPS_FreezingRain-Accum_Sfc_LatLon0.15_PT084H.grib2 2026-04-28 16:15 1.0M
20260428T12Z_MSC_GDPS_GeopotentialHeight_IsbL-0001_LatLon0.15_PT084H.grib2 2026-04-28 16:15 458K
20260428T12Z_MSC_GDPS_GeopotentialHeight_IsbL-0005_LatLon0.15_PT084H.grib2 2026-04-28 16:15 505K
20260428T12Z_MSC_GDPS_GeopotentialHeight_IsbL-0010_LatLon0.15_PT084H.grib2 2026-04-28 16:15 493K
20260428T12Z_MSC_GDPS_GeopotentialHeight_IsbL-0020_LatLon0.15_PT084H.grib2 2026-04-28 16:15 423K
20260428T12Z_MSC_GDPS_GeopotentialHeight_IsbL-0030_LatLon0.15_PT084H.grib2 2026-04-28 16:15 428K
20260428T12Z_MSC_GDPS_GeopotentialHeight_IsbL-0050_LatLon0.15_PT084H.grib2 2026-04-28 16:15 580K
20260428T12Z_MSC_GDPS_GeopotentialHeight_IsbL-0100_LatLon0.15_PT084H.grib2 2026-04-28 16:15 612K
20260428T12Z_MSC_GDPS_GeopotentialHeight_IsbL-0150_LatLon0.15_PT084H.grib2 2026-04-28 16:15 462K
20260428T12Z_MSC_GDPS_GeopotentialHeight_IsbL-0175_LatLon0.15_PT084H.grib2 2026-04-28 16:15 466K
20260428T12Z_MSC_GDPS_GeopotentialHeight_IsbL-0200_LatLon0.15_PT084H.grib2 2026-04-28 16:15 472K
20260428T12Z_MSC_GDPS_GeopotentialHeight_IsbL-0225_LatLon0.15_PT084H.grib2 2026-04-28 16:15 634K
20260428T12Z_MSC_GDPS_GeopotentialHeight_IsbL-0250_LatLon0.15_PT084H.grib2 2026-04-28 16:15 636K
20260428T12Z_MSC_GDPS_GeopotentialHeight_IsbL-0275_LatLon0.15_PT084H.grib2 2026-04-28 16:15 633K
20260428T12Z_MSC_GDPS_GeopotentialHeight_IsbL-0300_LatLon0.15_PT084H.grib2 2026-04-28 16:15 636K
20260428T12Z_MSC_GDPS_GeopotentialHeight_IsbL-0350_LatLon0.15_PT084H.grib2 2026-04-28 16:15 631K
20260428T12Z_MSC_GDPS_GeopotentialHeight_IsbL-0400_LatLon0.15_PT084H.grib2 2026-04-28 16:15 623K
20260428T12Z_MSC_GDPS_GeopotentialHeight_IsbL-0450_LatLon0.15_PT084H.grib2 2026-04-28 16:15 613K
20260428T12Z_MSC_GDPS_GeopotentialHeight_IsbL-0500_LatLon0.15_PT084H.grib2 2026-04-28 16:15 533K
20260428T12Z_MSC_GDPS_GeopotentialHeight_IsbL-0550_LatLon0.15_PT084H.grib2 2026-04-28 16:15 527K
20260428T12Z_MSC_GDPS_GeopotentialHeight_IsbL-0600_LatLon0.15_PT084H.grib2 2026-04-28 16:15 523K
20260428T12Z_MSC_GDPS_GeopotentialHeight_IsbL-0650_LatLon0.15_PT084H.grib2 2026-04-28 16:15 687K
20260428T12Z_MSC_GDPS_GeopotentialHeight_IsbL-0700_LatLon0.15_PT084H.grib2 2026-04-28 16:15 683K
20260428T12Z_MSC_GDPS_GeopotentialHeight_IsbL-0750_LatLon0.15_PT084H.grib2 2026-04-28 16:15 689K
20260428T12Z_MSC_GDPS_GeopotentialHeight_IsbL-0800_LatLon0.15_PT084H.grib2 2026-04-28 16:15 697K
20260428T12Z_MSC_GDPS_GeopotentialHeight_IsbL-0850_LatLon0.15_PT084H.grib2 2026-04-28 16:15 705K
20260428T12Z_MSC_GDPS_GeopotentialHeight_IsbL-0875_LatLon0.15_PT084H.grib2 2026-04-28 16:15 717K
20260428T12Z_MSC_GDPS_GeopotentialHeight_IsbL-0900_LatLon0.15_PT084H.grib2 2026-04-28 16:15 722K
20260428T12Z_MSC_GDPS_GeopotentialHeight_IsbL-0925_LatLon0.15_PT084H.grib2 2026-04-28 16:15 732K
20260428T12Z_MSC_GDPS_GeopotentialHeight_IsbL-0950_LatLon0.15_PT084H.grib2 2026-04-28 16:15 737K
20260428T12Z_MSC_GDPS_GeopotentialHeight_IsbL-0970_LatLon0.15_PT084H.grib2 2026-04-28 16:15 749K
20260428T12Z_MSC_GDPS_GeopotentialHeight_IsbL-0985_LatLon0.15_PT084H.grib2 2026-04-28 16:15 764K
20260428T12Z_MSC_GDPS_GeopotentialHeight_IsbL-1000_LatLon0.15_PT084H.grib2 2026-04-28 16:15 784K
20260428T12Z_MSC_GDPS_GeopotentialHeight_IsbL-1015_LatLon0.15_PT084H.grib2 2026-04-28 16:15 806K
20260428T12Z_MSC_GDPS_Humidex_Sfc_LatLon0.15_PT084H.grib2 2026-04-28 16:15 5.3M
20260428T12Z_MSC_GDPS_IcePellets-Accum12h_Sfc_LatLon0.15_PT084H.grib2 2026-04-28 16:15 44K
20260428T12Z_MSC_GDPS_IcePellets-Accum1h_Sfc_LatLon0.15_PT084H.grib2 2026-04-28 16:15 23K
20260428T12Z_MSC_GDPS_IcePellets-Accum24h_Sfc_LatLon0.15_PT084H.grib2 2026-04-28 16:15 76K
20260428T12Z_MSC_GDPS_IcePellets-Accum3h_Sfc_LatLon0.15_PT084H.grib2 2026-04-28 16:15 23K
20260428T12Z_MSC_GDPS_IcePellets-Accum6h_Sfc_LatLon0.15_PT084H.grib2 2026-04-28 16:15 28K
20260428T12Z_MSC_GDPS_IcePellets-Accum_Sfc_LatLon0.15_PT084H.grib2 2026-04-28 16:15 1.7M
20260428T12Z_MSC_GDPS_KIndex_Sfc_LatLon0.15_PT084H.grib2 2026-04-28 16:15 6.5M
20260428T12Z_MSC_GDPS_LatentHeatNetFlux_Sfc_LatLon0.15_PT084H.grib2 2026-04-28 16:15 848K
20260428T12Z_MSC_GDPS_LiftedIndex-MU-VT_IsbL-0500_LatLon0.15_PT084H.grib2 2026-04-28 16:15 5.3M
20260428T12Z_MSC_GDPS_NetLongwaveRadiationFlux-Accum_Sfc_LatLon0.15_PT084H.grib2 2026-04-28 16:15 917K
20260428T12Z_MSC_GDPS_NetShortwaveRadiationFlux-Accum_Sfc_LatLon0.15_PT084H.grib2 2026-04-28 16:15 908K
20260428T12Z_MSC_GDPS_O3MixingRatio_Sfc_LatLon0.15_PT084H.grib2 2026-04-28 16:41 1.9M
20260428T12Z_MSC_GDPS_O3_EAtm_LatLon0.15_PT084H.grib2 2026-04-28 16:41 2.5M
20260428T12Z_MSC_GDPS_PlanetaryBoundaryLayerHeight_Sfc_LatLon0.15_PT084H.grib2 2026-04-28 16:15 2.4M
20260428T12Z_MSC_GDPS_Precip-Accum12h_Sfc_LatLon0.15_PT084H.grib2 2026-04-28 16:15 4.1M
20260428T12Z_MSC_GDPS_Precip-Accum1h_Sfc_LatLon0.15_PT084H.grib2 2026-04-28 16:15 3.2M
20260428T12Z_MSC_GDPS_Precip-Accum24h_Sfc_LatLon0.15_PT084H.grib2 2026-04-28 16:15 4.3M
20260428T12Z_MSC_GDPS_Precip-Accum3h_Sfc_LatLon0.15_PT084H.grib2 2026-04-28 16:15 3.5M
20260428T12Z_MSC_GDPS_Precip-Accum6h_Sfc_LatLon0.15_PT084H.grib2 2026-04-28 16:15 3.8M
20260428T12Z_MSC_GDPS_Precip-Accum_Sfc_LatLon0.15_PT084H.grib2 2026-04-28 16:15 5.0M
20260428T12Z_MSC_GDPS_PrecipRate_Sfc_LatLon0.15_PT084H.grib2 2026-04-28 16:15 2.9M
20260428T12Z_MSC_GDPS_PrecipType-Instant_Sfc_LatLon0.15_PT084H.grib2 2026-04-28 16:15 1.5M
20260428T12Z_MSC_GDPS_Pressure_MSL_LatLon0.15_PT084H.grib2 2026-04-28 16:15 719K
20260428T12Z_MSC_GDPS_Pressure_PVU-1.5_LatLon0.15_PT084H.grib2 2026-04-28 16:15 5.7M
20260428T12Z_MSC_GDPS_Pressure_PVU-1_LatLon0.15_PT084H.grib2 2026-04-28 16:15 6.0M
20260428T12Z_MSC_GDPS_Pressure_PVU-2_LatLon0.15_PT084H.grib2 2026-04-28 16:15 5.5M
20260428T12Z_MSC_GDPS_Pressure_Sfc_LatLon0.15_PT084H.grib2 2026-04-28 16:15 1.1M
20260428T12Z_MSC_GDPS_RadiativeTemp_Sfc_LatLon0.15_PT084H.grib2 2026-04-28 16:15 655K
20260428T12Z_MSC_GDPS_Rain-Accum12h_Sfc_LatLon0.15_PT084H.grib2 2026-04-28 16:15 2.7M
20260428T12Z_MSC_GDPS_Rain-Accum1h_Sfc_LatLon0.15_PT084H.grib2 2026-04-28 16:15 1.6M
20260428T12Z_MSC_GDPS_Rain-Accum24h_Sfc_LatLon0.15_PT084H.grib2 2026-04-28 16:15 3.0M
20260428T12Z_MSC_GDPS_Rain-Accum3h_Sfc_LatLon0.15_PT084H.grib2 2026-04-28 16:15 1.6M
20260428T12Z_MSC_GDPS_Rain-Accum6h_Sfc_LatLon0.15_PT084H.grib2 2026-04-28 16:15 2.4M
20260428T12Z_MSC_GDPS_Rain-Accum_Sfc_LatLon0.15_PT084H.grib2 2026-04-28 16:15 4.0M
20260428T12Z_MSC_GDPS_RelativeHumidity_AGL-2m_LatLon0.15_PT084H.grib2 2026-04-28 16:15 1.0M
20260428T12Z_MSC_GDPS_RelativeHumidity_IsbL-0010_LatLon0.15_PT084H.grib2 2026-04-28 16:15 200K
20260428T12Z_MSC_GDPS_RelativeHumidity_IsbL-0020_LatLon0.15_PT084H.grib2 2026-04-28 16:15 240K
20260428T12Z_MSC_GDPS_RelativeHumidity_IsbL-0030_LatLon0.15_PT084H.grib2 2026-04-28 16:15 273K
20260428T12Z_MSC_GDPS_RelativeHumidity_IsbL-0050_LatLon0.15_PT084H.grib2 2026-04-28 16:15 261K
20260428T12Z_MSC_GDPS_RelativeHumidity_IsbL-0100_LatLon0.15_PT084H.grib2 2026-04-28 16:15 540K
20260428T12Z_MSC_GDPS_RelativeHumidity_IsbL-0150_LatLon0.15_PT084H.grib2 2026-04-28 16:15 728K
20260428T12Z_MSC_GDPS_RelativeHumidity_IsbL-0175_LatLon0.15_PT084H.grib2 2026-04-28 16:15 839K
20260428T12Z_MSC_GDPS_RelativeHumidity_IsbL-0200_LatLon0.15_PT084H.grib2 2026-04-28 16:15 753K
20260428T12Z_MSC_GDPS_RelativeHumidity_IsbL-0225_LatLon0.15_PT084H.grib2 2026-04-28 16:15 841K
20260428T12Z_MSC_GDPS_RelativeHumidity_IsbL-0250_LatLon0.15_PT084H.grib2 2026-04-28 16:15 897K
20260428T12Z_MSC_GDPS_RelativeHumidity_IsbL-0275_LatLon0.15_PT084H.grib2 2026-04-28 16:15 879K
20260428T12Z_MSC_GDPS_RelativeHumidity_IsbL-0300_LatLon0.15_PT084H.grib2 2026-04-28 16:15 890K
20260428T12Z_MSC_GDPS_RelativeHumidity_IsbL-0350_LatLon0.15_PT084H.grib2 2026-04-28 16:15 913K
20260428T12Z_MSC_GDPS_RelativeHumidity_IsbL-0400_LatLon0.15_PT084H.grib2 2026-04-28 16:15 966K
20260428T12Z_MSC_GDPS_RelativeHumidity_IsbL-0450_LatLon0.15_PT084H.grib2 2026-04-28 16:15 1.0M
20260428T12Z_MSC_GDPS_RelativeHumidity_IsbL-0500_LatLon0.15_PT084H.grib2 2026-04-28 16:15 1.0M
20260428T12Z_MSC_GDPS_RelativeHumidity_IsbL-0550_LatLon0.15_PT084H.grib2 2026-04-28 16:15 1.0M
20260428T12Z_MSC_GDPS_RelativeHumidity_IsbL-0600_LatLon0.15_PT084H.grib2 2026-04-28 16:15 1.1M
20260428T12Z_MSC_GDPS_RelativeHumidity_IsbL-0650_LatLon0.15_PT084H.grib2 2026-04-28 16:15 1.1M
20260428T12Z_MSC_GDPS_RelativeHumidity_IsbL-0700_LatLon0.15_PT084H.grib2 2026-04-28 16:15 1.2M
20260428T12Z_MSC_GDPS_RelativeHumidity_IsbL-0750_LatLon0.15_PT084H.grib2 2026-04-28 16:15 1.2M
20260428T12Z_MSC_GDPS_RelativeHumidity_IsbL-0800_LatLon0.15_PT084H.grib2 2026-04-28 16:15 1.2M
20260428T12Z_MSC_GDPS_RelativeHumidity_IsbL-0850_LatLon0.15_PT084H.grib2 2026-04-28 16:15 1.3M
20260428T12Z_MSC_GDPS_RelativeHumidity_IsbL-0875_LatLon0.15_PT084H.grib2 2026-04-28 16:15 1.3M
20260428T12Z_MSC_GDPS_RelativeHumidity_IsbL-0900_LatLon0.15_PT084H.grib2 2026-04-28 16:15 1.2M
20260428T12Z_MSC_GDPS_RelativeHumidity_IsbL-0925_LatLon0.15_PT084H.grib2 2026-04-28 16:15 1.2M
20260428T12Z_MSC_GDPS_RelativeHumidity_IsbL-0950_LatLon0.15_PT084H.grib2 2026-04-28 16:15 1.2M
20260428T12Z_MSC_GDPS_RelativeHumidity_IsbL-0970_LatLon0.15_PT084H.grib2 2026-04-28 16:15 1.2M
20260428T12Z_MSC_GDPS_RelativeHumidity_IsbL-0985_LatLon0.15_PT084H.grib2 2026-04-28 16:15 1.1M
20260428T12Z_MSC_GDPS_RelativeHumidity_IsbL-1000_LatLon0.15_PT084H.grib2 2026-04-28 16:15 1.1M
20260428T12Z_MSC_GDPS_RelativeHumidity_IsbL-1015_LatLon0.15_PT084H.grib2 2026-04-28 16:15 1.0M
20260428T12Z_MSC_GDPS_RelativeVorticity_IsbL-0200_LatLon0.15_PT084H.grib2 2026-04-28 16:15 1.4M
20260428T12Z_MSC_GDPS_RelativeVorticity_IsbL-0250_LatLon0.15_PT084H.grib2 2026-04-28 16:15 1.5M
20260428T12Z_MSC_GDPS_RelativeVorticity_IsbL-0500_LatLon0.15_PT084H.grib2 2026-04-28 16:15 1.2M
20260428T12Z_MSC_GDPS_RelativeVorticity_IsbL-0700_LatLon0.15_PT084H.grib2 2026-04-28 16:15 1.4M
20260428T12Z_MSC_GDPS_RelativeVorticity_IsbL-0850_LatLon0.15_PT084H.grib2 2026-04-28 16:15 1.6M
20260428T12Z_MSC_GDPS_Runoff-Accum_Sfc_LatLon0.15_PT084H.grib2 2026-04-28 16:15 112K
20260428T12Z_MSC_GDPS_SensibleHeatNetFlux_Sfc_LatLon0.15_PT084H.grib2 2026-04-28 16:15 594K
20260428T12Z_MSC_GDPS_ShowalterIndex_IsbL-0500_LatLon0.15_PT084H.grib2 2026-04-28 16:15 6.2M
20260428T12Z_MSC_GDPS_Snow-Accum12h_Sfc_LatLon0.15_PT084H.grib2 2026-04-28 16:15 1.5M
20260428T12Z_MSC_GDPS_Snow-Accum1h_Sfc_LatLon0.15_PT084H.grib2 2026-04-28 16:15 1.1M
20260428T12Z_MSC_GDPS_Snow-Accum24h_Sfc_LatLon0.15_PT084H.grib2 2026-04-28 16:15 1.6M
20260428T12Z_MSC_GDPS_Snow-Accum3h_Sfc_LatLon0.15_PT084H.grib2 2026-04-28 16:15 1.1M
20260428T12Z_MSC_GDPS_Snow-Accum6h_Sfc_LatLon0.15_PT084H.grib2 2026-04-28 16:15 1.4M
20260428T12Z_MSC_GDPS_Snow-Accum_Sfc_LatLon0.15_PT084H.grib2 2026-04-28 16:15 2.0M
20260428T12Z_MSC_GDPS_SnowDensity_Sfc_LatLon0.15_PT084H.grib2 2026-04-28 16:15 261K
20260428T12Z_MSC_GDPS_SnowDepth_Sfc_LatLon0.15_PT084H.grib2 2026-04-28 16:15 1.7M
20260428T12Z_MSC_GDPS_SoilTemp_DBS-0to10cm_LatLon0.15_PT084H.grib2 2026-04-28 16:15 509K
20260428T12Z_MSC_GDPS_SoilTemp_Sfc_LatLon0.15_PT084H.grib2 2026-04-28 16:15 574K
20260428T12Z_MSC_GDPS_SoilVolumetricIceContent_Sfc_LatLon0.15_PT084H.grib2 2026-04-28 16:15 200K
20260428T12Z_MSC_GDPS_SoilVolumetricWaterContent_DBS-0to10cm_LatLon0.15_PT084H.grib2 2026-04-28 16:15 588K
20260428T12Z_MSC_GDPS_SoilVolumetricWaterContent_DBS-0to1cm_LatLon0.15_PT084H.grib2 2026-04-28 16:15 650K
20260428T12Z_MSC_GDPS_SpecificHumidity_AGL-120m_LatLon0.15_PT084H.grib2 2026-04-28 16:15 1.1M
20260428T12Z_MSC_GDPS_SpecificHumidity_AGL-2m_LatLon0.15_PT084H.grib2 2026-04-28 16:15 1.2M
20260428T12Z_MSC_GDPS_SpecificHumidity_AGL-40m_LatLon0.15_PT084H.grib2 2026-04-28 16:15 1.1M
20260428T12Z_MSC_GDPS_SpecificHumidity_AGL-80m_LatLon0.15_PT084H.grib2 2026-04-28 16:15 1.1M
20260428T12Z_MSC_GDPS_SpecificHumidity_IsbL-0001_LatLon0.15_PT084H.grib2 2026-04-28 16:15 1.1M
20260428T12Z_MSC_GDPS_SpecificHumidity_IsbL-0005_LatLon0.15_PT084H.grib2 2026-04-28 16:15 1.1M
20260428T12Z_MSC_GDPS_SpecificHumidity_IsbL-0010_LatLon0.15_PT084H.grib2 2026-04-28 16:15 1.2M
20260428T12Z_MSC_GDPS_SpecificHumidity_IsbL-0020_LatLon0.15_PT084H.grib2 2026-04-28 16:15 1.2M
20260428T12Z_MSC_GDPS_SpecificHumidity_IsbL-0030_LatLon0.15_PT084H.grib2 2026-04-28 16:15 1.5M
20260428T12Z_MSC_GDPS_SpecificHumidity_IsbL-0050_LatLon0.15_PT084H.grib2 2026-04-28 16:15 1.2M
20260428T12Z_MSC_GDPS_SpecificHumidity_IsbL-0100_LatLon0.15_PT084H.grib2 2026-04-28 16:15 1.3M
20260428T12Z_MSC_GDPS_SpecificHumidity_IsbL-0150_LatLon0.15_PT084H.grib2 2026-04-28 16:15 1.4M
20260428T12Z_MSC_GDPS_SpecificHumidity_IsbL-0175_LatLon0.15_PT084H.grib2 2026-04-28 16:15 1.4M
20260428T12Z_MSC_GDPS_SpecificHumidity_IsbL-0200_LatLon0.15_PT084H.grib2 2026-04-28 16:15 1.5M
20260428T12Z_MSC_GDPS_SpecificHumidity_IsbL-0225_LatLon0.15_PT084H.grib2 2026-04-28 16:15 1.7M
20260428T12Z_MSC_GDPS_SpecificHumidity_IsbL-0250_LatLon0.15_PT084H.grib2 2026-04-28 16:15 1.6M
20260428T12Z_MSC_GDPS_SpecificHumidity_IsbL-0275_LatLon0.15_PT084H.grib2 2026-04-28 16:15 1.4M
20260428T12Z_MSC_GDPS_SpecificHumidity_IsbL-0300_LatLon0.15_PT084H.grib2 2026-04-28 16:15 1.4M
20260428T12Z_MSC_GDPS_SpecificHumidity_IsbL-0350_LatLon0.15_PT084H.grib2 2026-04-28 16:15 1.3M
20260428T12Z_MSC_GDPS_SpecificHumidity_IsbL-0400_LatLon0.15_PT084H.grib2 2026-04-28 16:15 1.5M
20260428T12Z_MSC_GDPS_SpecificHumidity_IsbL-0450_LatLon0.15_PT084H.grib2 2026-04-28 16:15 1.3M
20260428T12Z_MSC_GDPS_SpecificHumidity_IsbL-0500_LatLon0.15_PT084H.grib2 2026-04-28 16:15 1.5M
20260428T12Z_MSC_GDPS_SpecificHumidity_IsbL-0550_LatLon0.15_PT084H.grib2 2026-04-28 16:15 1.6M
20260428T12Z_MSC_GDPS_SpecificHumidity_IsbL-0600_LatLon0.15_PT084H.grib2 2026-04-28 16:15 1.8M
20260428T12Z_MSC_GDPS_SpecificHumidity_IsbL-0650_LatLon0.15_PT084H.grib2 2026-04-28 16:15 1.6M
20260428T12Z_MSC_GDPS_SpecificHumidity_IsbL-0700_LatLon0.15_PT084H.grib2 2026-04-28 16:15 1.6M
20260428T12Z_MSC_GDPS_SpecificHumidity_IsbL-0750_LatLon0.15_PT084H.grib2 2026-04-28 16:15 1.7M
20260428T12Z_MSC_GDPS_SpecificHumidity_IsbL-0800_LatLon0.15_PT084H.grib2 2026-04-28 16:15 1.8M
20260428T12Z_MSC_GDPS_SpecificHumidity_IsbL-0850_LatLon0.15_PT084H.grib2 2026-04-28 16:15 1.9M
20260428T12Z_MSC_GDPS_SpecificHumidity_IsbL-0875_LatLon0.15_PT084H.grib2 2026-04-28 16:15 1.6M
20260428T12Z_MSC_GDPS_SpecificHumidity_IsbL-0900_LatLon0.15_PT084H.grib2 2026-04-28 16:15 1.6M
20260428T12Z_MSC_GDPS_SpecificHumidity_IsbL-0925_LatLon0.15_PT084H.grib2 2026-04-28 16:15 1.6M
20260428T12Z_MSC_GDPS_SpecificHumidity_IsbL-0950_LatLon0.15_PT084H.grib2 2026-04-28 16:15 1.5M
20260428T12Z_MSC_GDPS_SpecificHumidity_IsbL-0970_LatLon0.15_PT084H.grib2 2026-04-28 16:15 1.5M
20260428T12Z_MSC_GDPS_SpecificHumidity_IsbL-0985_LatLon0.15_PT084H.grib2 2026-04-28 16:15 1.5M
20260428T12Z_MSC_GDPS_SpecificHumidity_IsbL-1000_LatLon0.15_PT084H.grib2 2026-04-28 16:15 1.5M
20260428T12Z_MSC_GDPS_SpecificHumidity_IsbL-1015_LatLon0.15_PT084H.grib2 2026-04-28 16:15 1.4M
20260428T12Z_MSC_GDPS_SpecificHumidity_Sfc_LatLon0.15_PT084H.grib2 2026-04-28 16:15 634K
20260428T12Z_MSC_GDPS_Thickness_IsbL-0850to0700_LatLon0.15_PT084H.grib2 2026-04-28 16:15 471K
20260428T12Z_MSC_GDPS_Thickness_IsbL-1000to0500_LatLon0.15_PT084H.grib2 2026-04-28 16:15 368K
20260428T12Z_MSC_GDPS_Thickness_IsbL-1000to0850_LatLon0.15_PT084H.grib2 2026-04-28 16:15 487K
20260428T12Z_MSC_GDPS_TotalCloudCover_Sfc_LatLon0.15_PT084H.grib2 2026-04-28 16:15 850K
20260428T12Z_MSC_GDPS_TotalTotalsIndex_Sfc_LatLon0.15_PT084H.grib2 2026-04-28 16:15 6.2M
20260428T12Z_MSC_GDPS_UVIndex-ClearSky_Sfc_LatLon0.15_PT084H.grib2 2026-04-28 16:41 1.0M
20260428T12Z_MSC_GDPS_UVIndex_Sfc_LatLon0.15_PT084H.grib2 2026-04-28 16:41 1.5M
20260428T12Z_MSC_GDPS_UpwardLongwaveRadiationFlux_NTAtm_LatLon0.15_PT084H.grib2 2026-04-28 16:15 1.1M
20260428T12Z_MSC_GDPS_VerticalVelocity_IsbL-0200_LatLon0.15_PT084H.grib2 2026-04-28 16:15 1.3M
20260428T12Z_MSC_GDPS_VerticalVelocity_IsbL-0250_LatLon0.15_PT084H.grib2 2026-04-28 16:15 1.0M
20260428T12Z_MSC_GDPS_VerticalVelocity_IsbL-0500_LatLon0.15_PT084H.grib2 2026-04-28 16:15 1.2M
20260428T12Z_MSC_GDPS_VerticalVelocity_IsbL-0600_LatLon0.15_PT084H.grib2 2026-04-28 16:15 1.3M
20260428T12Z_MSC_GDPS_VerticalVelocity_IsbL-0700_LatLon0.15_PT084H.grib2 2026-04-28 16:15 1.1M
20260428T12Z_MSC_GDPS_VerticalVelocity_IsbL-0850_LatLon0.15_PT084H.grib2 2026-04-28 16:15 1.3M
20260428T12Z_MSC_GDPS_WindChill_Sfc_LatLon0.15_PT084H.grib2 2026-04-28 16:15 5.3M
20260428T12Z_MSC_GDPS_WindDir_AGL-10m_LatLon0.15_PT084H.grib2 2026-04-28 16:15 1.3M
20260428T12Z_MSC_GDPS_WindDir_AGL-120m_LatLon0.15_PT084H.grib2 2026-04-28 16:15 1.4M
20260428T12Z_MSC_GDPS_WindDir_AGL-40m_LatLon0.15_PT084H.grib2 2026-04-28 16:15 1.4M
20260428T12Z_MSC_GDPS_WindDir_AGL-80m_LatLon0.15_PT084H.grib2 2026-04-28 16:15 1.4M
20260428T12Z_MSC_GDPS_WindDir_IsbL-0001_LatLon0.15_PT084H.grib2 2026-04-28 16:15 674K
20260428T12Z_MSC_GDPS_WindDir_IsbL-0005_LatLon0.15_PT084H.grib2 2026-04-28 16:15 811K
20260428T12Z_MSC_GDPS_WindDir_IsbL-0010_LatLon0.15_PT084H.grib2 2026-04-28 16:15 852K
20260428T12Z_MSC_GDPS_WindDir_IsbL-0020_LatLon0.15_PT084H.grib2 2026-04-28 16:15 955K
20260428T12Z_MSC_GDPS_WindDir_IsbL-0030_LatLon0.15_PT084H.grib2 2026-04-28 16:15 942K
20260428T12Z_MSC_GDPS_WindDir_IsbL-0050_LatLon0.15_PT084H.grib2 2026-04-28 16:15 932K
20260428T12Z_MSC_GDPS_WindDir_IsbL-0100_LatLon0.15_PT084H.grib2 2026-04-28 16:15 1.0M
20260428T12Z_MSC_GDPS_WindDir_IsbL-0150_LatLon0.15_PT084H.grib2 2026-04-28 16:15 1.0M
20260428T12Z_MSC_GDPS_WindDir_IsbL-0175_LatLon0.15_PT084H.grib2 2026-04-28 16:15 1.0M
20260428T12Z_MSC_GDPS_WindDir_IsbL-0200_LatLon0.15_PT084H.grib2 2026-04-28 16:15 1.1M
20260428T12Z_MSC_GDPS_WindDir_IsbL-0225_LatLon0.15_PT084H.grib2 2026-04-28 16:15 1.1M
20260428T12Z_MSC_GDPS_WindDir_IsbL-0250_LatLon0.15_PT084H.grib2 2026-04-28 16:15 1.1M
20260428T12Z_MSC_GDPS_WindDir_IsbL-0275_LatLon0.15_PT084H.grib2 2026-04-28 16:15 1.2M
20260428T12Z_MSC_GDPS_WindDir_IsbL-0300_LatLon0.15_PT084H.grib2 2026-04-28 16:15 1.2M
20260428T12Z_MSC_GDPS_WindDir_IsbL-0350_LatLon0.15_PT084H.grib2 2026-04-28 16:15 1.3M
20260428T12Z_MSC_GDPS_WindDir_IsbL-0400_LatLon0.15_PT084H.grib2 2026-04-28 16:15 1.3M
20260428T12Z_MSC_GDPS_WindDir_IsbL-0450_LatLon0.15_PT084H.grib2 2026-04-28 16:15 1.3M
20260428T12Z_MSC_GDPS_WindDir_IsbL-0500_LatLon0.15_PT084H.grib2 2026-04-28 16:15 1.4M
20260428T12Z_MSC_GDPS_WindDir_IsbL-0550_LatLon0.15_PT084H.grib2 2026-04-28 16:15 1.4M
20260428T12Z_MSC_GDPS_WindDir_IsbL-0600_LatLon0.15_PT084H.grib2 2026-04-28 16:15 1.5M
20260428T12Z_MSC_GDPS_WindDir_IsbL-0650_LatLon0.15_PT084H.grib2 2026-04-28 16:15 1.6M
20260428T12Z_MSC_GDPS_WindDir_IsbL-0700_LatLon0.15_PT084H.grib2 2026-04-28 16:15 1.6M
20260428T12Z_MSC_GDPS_WindDir_IsbL-0750_LatLon0.15_PT084H.grib2 2026-04-28 16:15 1.7M
20260428T12Z_MSC_GDPS_WindDir_IsbL-0800_LatLon0.15_PT084H.grib2 2026-04-28 16:15 1.8M
20260428T12Z_MSC_GDPS_WindDir_IsbL-0850_LatLon0.15_PT084H.grib2 2026-04-28 16:15 1.9M
20260428T12Z_MSC_GDPS_WindDir_IsbL-0875_LatLon0.15_PT084H.grib2 2026-04-28 16:15 2.0M
20260428T12Z_MSC_GDPS_WindDir_IsbL-0900_LatLon0.15_PT084H.grib2 2026-04-28 16:15 2.0M
20260428T12Z_MSC_GDPS_WindDir_IsbL-0925_LatLon0.15_PT084H.grib2 2026-04-28 16:15 2.0M
20260428T12Z_MSC_GDPS_WindDir_IsbL-0950_LatLon0.15_PT084H.grib2 2026-04-28 16:15 2.0M
20260428T12Z_MSC_GDPS_WindDir_IsbL-0970_LatLon0.15_PT084H.grib2 2026-04-28 16:15 2.0M
20260428T12Z_MSC_GDPS_WindDir_IsbL-0985_LatLon0.15_PT084H.grib2 2026-04-28 16:15 2.0M
20260428T12Z_MSC_GDPS_WindDir_IsbL-1000_LatLon0.15_PT084H.grib2 2026-04-28 16:15 2.1M
20260428T12Z_MSC_GDPS_WindDir_IsbL-1015_LatLon0.15_PT084H.grib2 2026-04-28 16:15 2.0M
20260428T12Z_MSC_GDPS_WindGust-Max_AGL-10m_LatLon0.15_PT084H.grib2 2026-04-28 16:15 2.3M
20260428T12Z_MSC_GDPS_WindGust-Min_AGL-10m_LatLon0.15_PT084H.grib2 2026-04-28 16:15 2.2M
20260428T12Z_MSC_GDPS_WindGust_AGL-10m_LatLon0.15_PT084H.grib2 2026-04-28 16:15 2.2M
20260428T12Z_MSC_GDPS_WindSpeed_AGL-10m_LatLon0.15_PT084H.grib2 2026-04-28 16:15 1.1M
20260428T12Z_MSC_GDPS_WindSpeed_AGL-120m_LatLon0.15_PT084H.grib2 2026-04-28 16:15 1.2M
20260428T12Z_MSC_GDPS_WindSpeed_AGL-40m_LatLon0.15_PT084H.grib2 2026-04-28 16:15 1.2M
20260428T12Z_MSC_GDPS_WindSpeed_AGL-80m_LatLon0.15_PT084H.grib2 2026-04-28 16:15 1.2M
20260428T12Z_MSC_GDPS_WindSpeed_IsbL-0001_LatLon0.15_PT084H.grib2 2026-04-28 16:15 660K
20260428T12Z_MSC_GDPS_WindSpeed_IsbL-0005_LatLon0.15_PT084H.grib2 2026-04-28 16:15 717K
20260428T12Z_MSC_GDPS_WindSpeed_IsbL-0010_LatLon0.15_PT084H.grib2 2026-04-28 16:15 651K
20260428T12Z_MSC_GDPS_WindSpeed_IsbL-0020_LatLon0.15_PT084H.grib2 2026-04-28 16:15 697K
20260428T12Z_MSC_GDPS_WindSpeed_IsbL-0030_LatLon0.15_PT084H.grib2 2026-04-28 16:15 893K
20260428T12Z_MSC_GDPS_WindSpeed_IsbL-0050_LatLon0.15_PT084H.grib2 2026-04-28 16:15 938K
20260428T12Z_MSC_GDPS_WindSpeed_IsbL-0100_LatLon0.15_PT084H.grib2 2026-04-28 16:15 848K
20260428T12Z_MSC_GDPS_WindSpeed_IsbL-0150_LatLon0.15_PT084H.grib2 2026-04-28 16:15 935K
20260428T12Z_MSC_GDPS_WindSpeed_IsbL-0175_LatLon0.15_PT084H.grib2 2026-04-28 16:15 1.0M
20260428T12Z_MSC_GDPS_WindSpeed_IsbL-0200_LatLon0.15_PT084H.grib2 2026-04-28 16:15 1.0M
20260428T12Z_MSC_GDPS_WindSpeed_IsbL-0225_LatLon0.15_PT084H.grib2 2026-04-28 16:15 1.0M
20260428T12Z_MSC_GDPS_WindSpeed_IsbL-0250_LatLon0.15_PT084H.grib2 2026-04-28 16:15 1.1M
20260428T12Z_MSC_GDPS_WindSpeed_IsbL-0275_LatLon0.15_PT084H.grib2 2026-04-28 16:15 1.1M
20260428T12Z_MSC_GDPS_WindSpeed_IsbL-0300_LatLon0.15_PT084H.grib2 2026-04-28 16:15 1.1M
20260428T12Z_MSC_GDPS_WindSpeed_IsbL-0350_LatLon0.15_PT084H.grib2 2026-04-28 16:15 1.1M
20260428T12Z_MSC_GDPS_WindSpeed_IsbL-0400_LatLon0.15_PT084H.grib2 2026-04-28 16:15 1.1M
20260428T12Z_MSC_GDPS_WindSpeed_IsbL-0450_LatLon0.15_PT084H.grib2 2026-04-28 16:15 1.1M
20260428T12Z_MSC_GDPS_WindSpeed_IsbL-0500_LatLon0.15_PT084H.grib2 2026-04-28 16:15 1.1M
20260428T12Z_MSC_GDPS_WindSpeed_IsbL-0550_LatLon0.15_PT084H.grib2 2026-04-28 16:15 1.1M
20260428T12Z_MSC_GDPS_WindSpeed_IsbL-0600_LatLon0.15_PT084H.grib2 2026-04-28 16:15 1.1M
20260428T12Z_MSC_GDPS_WindSpeed_IsbL-0650_LatLon0.15_PT084H.grib2 2026-04-28 16:15 1.5M
20260428T12Z_MSC_GDPS_WindSpeed_IsbL-0700_LatLon0.15_PT084H.grib2 2026-04-28 16:15 1.5M
20260428T12Z_MSC_GDPS_WindSpeed_IsbL-0750_LatLon0.15_PT084H.grib2 2026-04-28 16:15 1.6M
20260428T12Z_MSC_GDPS_WindSpeed_IsbL-0800_LatLon0.15_PT084H.grib2 2026-04-28 16:15 1.6M
20260428T12Z_MSC_GDPS_WindSpeed_IsbL-0850_LatLon0.15_PT084H.grib2 2026-04-28 16:15 1.7M
20260428T12Z_MSC_GDPS_WindSpeed_IsbL-0875_LatLon0.15_PT084H.grib2 2026-04-28 16:15 1.8M
20260428T12Z_MSC_GDPS_WindSpeed_IsbL-0900_LatLon0.15_PT084H.grib2 2026-04-28 16:15 1.9M
20260428T12Z_MSC_GDPS_WindSpeed_IsbL-0925_LatLon0.15_PT084H.grib2 2026-04-28 16:15 1.9M
20260428T12Z_MSC_GDPS_WindSpeed_IsbL-0950_LatLon0.15_PT084H.grib2 2026-04-28 16:15 1.9M
20260428T12Z_MSC_GDPS_WindSpeed_IsbL-0970_LatLon0.15_PT084H.grib2 2026-04-28 16:15 1.9M
20260428T12Z_MSC_GDPS_WindSpeed_IsbL-0985_LatLon0.15_PT084H.grib2 2026-04-28 16:15 1.9M
20260428T12Z_MSC_GDPS_WindSpeed_IsbL-1000_LatLon0.15_PT084H.grib2 2026-04-28 16:15 1.8M
20260428T12Z_MSC_GDPS_WindSpeed_IsbL-1015_LatLon0.15_PT084H.grib2 2026-04-28 16:15 1.8M
20260428T12Z_MSC_GDPS_WindU_AGL-10m_LatLon0.15_PT084H.grib2 2026-04-28 16:15 1.3M
20260428T12Z_MSC_GDPS_WindU_AGL-120m_LatLon0.15_PT084H.grib2 2026-04-28 16:15 1.0M
20260428T12Z_MSC_GDPS_WindU_AGL-40m_LatLon0.15_PT084H.grib2 2026-04-28 16:15 972K
20260428T12Z_MSC_GDPS_WindU_AGL-80m_LatLon0.15_PT084H.grib2 2026-04-28 16:15 1.0M
20260428T12Z_MSC_GDPS_WindU_IsbL-0001_LatLon0.15_PT084H.grib2 2026-04-28 16:15 515K
20260428T12Z_MSC_GDPS_WindU_IsbL-0005_LatLon0.15_PT084H.grib2 2026-04-28 16:15 713K
20260428T12Z_MSC_GDPS_WindU_IsbL-0010_LatLon0.15_PT084H.grib2 2026-04-28 16:15 720K
20260428T12Z_MSC_GDPS_WindU_IsbL-0020_LatLon0.15_PT084H.grib2 2026-04-28 16:15 762K
20260428T12Z_MSC_GDPS_WindU_IsbL-0030_LatLon0.15_PT084H.grib2 2026-04-28 16:15 761K
20260428T12Z_MSC_GDPS_WindU_IsbL-0050_LatLon0.15_PT084H.grib2 2026-04-28 16:15 794K
20260428T12Z_MSC_GDPS_WindU_IsbL-0100_LatLon0.15_PT084H.grib2 2026-04-28 16:15 904K
20260428T12Z_MSC_GDPS_WindU_IsbL-0150_LatLon0.15_PT084H.grib2 2026-04-28 16:15 932K
20260428T12Z_MSC_GDPS_WindU_IsbL-0175_LatLon0.15_PT084H.grib2 2026-04-28 16:15 1.0M
20260428T12Z_MSC_GDPS_WindU_IsbL-0200_LatLon0.15_PT084H.grib2 2026-04-28 16:15 1.0M
20260428T12Z_MSC_GDPS_WindU_IsbL-0225_LatLon0.15_PT084H.grib2 2026-04-28 16:15 1.0M
20260428T12Z_MSC_GDPS_WindU_IsbL-0250_LatLon0.15_PT084H.grib2 2026-04-28 16:15 1.0M
20260428T12Z_MSC_GDPS_WindU_IsbL-0275_LatLon0.15_PT084H.grib2 2026-04-28 16:15 870K
20260428T12Z_MSC_GDPS_WindU_IsbL-0300_LatLon0.15_PT084H.grib2 2026-04-28 16:15 862K
20260428T12Z_MSC_GDPS_WindU_IsbL-0350_LatLon0.15_PT084H.grib2 2026-04-28 16:15 906K
20260428T12Z_MSC_GDPS_WindU_IsbL-0400_LatLon0.15_PT084H.grib2 2026-04-28 16:15 1.1M
20260428T12Z_MSC_GDPS_WindU_IsbL-0450_LatLon0.15_PT084H.grib2 2026-04-28 16:15 1.1M
20260428T12Z_MSC_GDPS_WindU_IsbL-0500_LatLon0.15_PT084H.grib2 2026-04-28 16:15 1.1M
20260428T12Z_MSC_GDPS_WindU_IsbL-0550_LatLon0.15_PT084H.grib2 2026-04-28 16:15 1.1M
20260428T12Z_MSC_GDPS_WindU_IsbL-0600_LatLon0.15_PT084H.grib2 2026-04-28 16:15 1.2M
20260428T12Z_MSC_GDPS_WindU_IsbL-0650_LatLon0.15_PT084H.grib2 2026-04-28 16:15 1.2M
20260428T12Z_MSC_GDPS_WindU_IsbL-0700_LatLon0.15_PT084H.grib2 2026-04-28 16:15 1.2M
20260428T12Z_MSC_GDPS_WindU_IsbL-0750_LatLon0.15_PT084H.grib2 2026-04-28 16:15 1.3M
20260428T12Z_MSC_GDPS_WindU_IsbL-0800_LatLon0.15_PT084H.grib2 2026-04-28 16:15 1.3M
20260428T12Z_MSC_GDPS_WindU_IsbL-0850_LatLon0.15_PT084H.grib2 2026-04-28 16:15 1.4M
20260428T12Z_MSC_GDPS_WindU_IsbL-0875_LatLon0.15_PT084H.grib2 2026-04-28 16:15 1.5M
20260428T12Z_MSC_GDPS_WindU_IsbL-0900_LatLon0.15_PT084H.grib2 2026-04-28 16:15 1.5M
20260428T12Z_MSC_GDPS_WindU_IsbL-0925_LatLon0.15_PT084H.grib2 2026-04-28 16:15 1.5M
20260428T12Z_MSC_GDPS_WindU_IsbL-0950_LatLon0.15_PT084H.grib2 2026-04-28 16:15 1.4M
20260428T12Z_MSC_GDPS_WindU_IsbL-0970_LatLon0.15_PT084H.grib2 2026-04-28 16:15 1.4M
20260428T12Z_MSC_GDPS_WindU_IsbL-0985_LatLon0.15_PT084H.grib2 2026-04-28 16:15 1.4M
20260428T12Z_MSC_GDPS_WindU_IsbL-1000_LatLon0.15_PT084H.grib2 2026-04-28 16:15 1.4M
20260428T12Z_MSC_GDPS_WindU_IsbL-1015_LatLon0.15_PT084H.grib2 2026-04-28 16:15 1.3M
20260428T12Z_MSC_GDPS_WindV_AGL-10m_LatLon0.15_PT084H.grib2 2026-04-28 16:15 1.6M
20260428T12Z_MSC_GDPS_WindV_AGL-120m_LatLon0.15_PT084H.grib2 2026-04-28 16:15 1.0M
20260428T12Z_MSC_GDPS_WindV_AGL-40m_LatLon0.15_PT084H.grib2 2026-04-28 16:15 969K
20260428T12Z_MSC_GDPS_WindV_AGL-80m_LatLon0.15_PT084H.grib2 2026-04-28 16:15 1.0M
20260428T12Z_MSC_GDPS_WindV_IsbL-0001_LatLon0.15_PT084H.grib2 2026-04-28 16:15 573K
20260428T12Z_MSC_GDPS_WindV_IsbL-0005_LatLon0.15_PT084H.grib2 2026-04-28 16:15 890K
20260428T12Z_MSC_GDPS_WindV_IsbL-0010_LatLon0.15_PT084H.grib2 2026-04-28 16:15 913K
20260428T12Z_MSC_GDPS_WindV_IsbL-0020_LatLon0.15_PT084H.grib2 2026-04-28 16:15 972K
20260428T12Z_MSC_GDPS_WindV_IsbL-0030_LatLon0.15_PT084H.grib2 2026-04-28 16:15 891K
20260428T12Z_MSC_GDPS_WindV_IsbL-0050_LatLon0.15_PT084H.grib2 2026-04-28 16:15 1.0M
20260428T12Z_MSC_GDPS_WindV_IsbL-0100_LatLon0.15_PT084H.grib2 2026-04-28 16:15 840K
20260428T12Z_MSC_GDPS_WindV_IsbL-0150_LatLon0.15_PT084H.grib2 2026-04-28 16:15 933K
20260428T12Z_MSC_GDPS_WindV_IsbL-0175_LatLon0.15_PT084H.grib2 2026-04-28 16:15 1.0M
20260428T12Z_MSC_GDPS_WindV_IsbL-0200_LatLon0.15_PT084H.grib2 2026-04-28 16:15 1.0M
20260428T12Z_MSC_GDPS_WindV_IsbL-0225_LatLon0.15_PT084H.grib2 2026-04-28 16:15 1.0M
20260428T12Z_MSC_GDPS_WindV_IsbL-0250_LatLon0.15_PT084H.grib2 2026-04-28 16:15 1.0M
20260428T12Z_MSC_GDPS_WindV_IsbL-0275_LatLon0.15_PT084H.grib2 2026-04-28 16:15 1.1M
20260428T12Z_MSC_GDPS_WindV_IsbL-0300_LatLon0.15_PT084H.grib2 2026-04-28 16:15 1.1M
20260428T12Z_MSC_GDPS_WindV_IsbL-0350_LatLon0.15_PT084H.grib2 2026-04-28 16:15 894K
20260428T12Z_MSC_GDPS_WindV_IsbL-0400_LatLon0.15_PT084H.grib2 2026-04-28 16:15 897K
20260428T12Z_MSC_GDPS_WindV_IsbL-0450_LatLon0.15_PT084H.grib2 2026-04-28 16:15 894K
20260428T12Z_MSC_GDPS_WindV_IsbL-0500_LatLon0.15_PT084H.grib2 2026-04-28 16:15 1.1M
20260428T12Z_MSC_GDPS_WindV_IsbL-0550_LatLon0.15_PT084H.grib2 2026-04-28 16:15 1.1M
20260428T12Z_MSC_GDPS_WindV_IsbL-0600_LatLon0.15_PT084H.grib2 2026-04-28 16:15 1.1M
20260428T12Z_MSC_GDPS_WindV_IsbL-0650_LatLon0.15_PT084H.grib2 2026-04-28 16:15 1.2M
20260428T12Z_MSC_GDPS_WindV_IsbL-0700_LatLon0.15_PT084H.grib2 2026-04-28 16:15 1.2M
20260428T12Z_MSC_GDPS_WindV_IsbL-0750_LatLon0.15_PT084H.grib2 2026-04-28 16:15 1.3M
20260428T12Z_MSC_GDPS_WindV_IsbL-0800_LatLon0.15_PT084H.grib2 2026-04-28 16:15 1.3M
20260428T12Z_MSC_GDPS_WindV_IsbL-0850_LatLon0.15_PT084H.grib2 2026-04-28 16:15 1.4M
20260428T12Z_MSC_GDPS_WindV_IsbL-0875_LatLon0.15_PT084H.grib2 2026-04-28 16:15 1.4M
20260428T12Z_MSC_GDPS_WindV_IsbL-0900_LatLon0.15_PT084H.grib2 2026-04-28 16:15 1.5M
20260428T12Z_MSC_GDPS_WindV_IsbL-0925_LatLon0.15_PT084H.grib2 2026-04-28 16:15 1.5M
20260428T12Z_MSC_GDPS_WindV_IsbL-0950_LatLon0.15_PT084H.grib2 2026-04-28 16:15 1.4M
20260428T12Z_MSC_GDPS_WindV_IsbL-0970_LatLon0.15_PT084H.grib2 2026-04-28 16:15 1.4M
20260428T12Z_MSC_GDPS_WindV_IsbL-0985_LatLon0.15_PT084H.grib2 2026-04-28 16:15 1.4M
20260428T12Z_MSC_GDPS_WindV_IsbL-1000_LatLon0.15_PT084H.grib2 2026-04-28 16:15 1.7M
20260428T12Z_MSC_GDPS_WindV_IsbL-1015_LatLon0.15_PT084H.grib2 2026-04-28 16:15 1.6M